Location: Warwick
(41.7000°N, 71.4170°W)
Time: 00:06:55
(UTC-04:00)

Hubble Space Telescope - Visible Passes

Search period start: 23 October 2017 00:00
Search period end: 02 November 2017 00:00
Orbit: 537 x 541 km, 28.5° (Epoch: 22 October)

Date Brightness Start Highest point End Pass type
(mag) Time Alt. Az. Time Alt. Az. Time Alt. Az.
23 Oct 3.3 19:59:33 10° SSW 20:00:30 12° SSW 20:00:30 12° SSW visible
24 Oct 3.2 19:49:12 10° SSW 19:50:53 13° S 19:50:53 13° S visible
25 Oct 3.1 19:38:55 10° SSW 19:40:46 13° S 19:41:16 13° S visible
26 Oct 3.2 19:28:44 10° SSW 19:30:27 12° S 19:31:41 11° SSE visible
27 Oct 3.3 19:18:40 10° SSW 19:20:07 12° S 19:21:35 10° SSE visible
28 Oct 3.4 19:08:50 10° SSW 19:09:48 11° S 19:10:44 10° S visible
